Weather History for Mena, AR

Change the Weather History Date:

Saturday, November 19, 2011

  Actual Average (KFSM) Record (KFSM)
Temperature  
Mean Temperature 63 °F -  
Max Temperature 71 °F 59 °F 80 °F (1950)
Min Temperature 57 °F 38 °F 18 °F (1903)
Degree Days  
Heating Degree Days 2    
Growing Degree Days 13 (Base 50)    
Moisture  
Dew Point 54 °F    
Average Humidity 76    
Maximum Humidity 88    
Minimum Humidity 41    
Precipitation  
Precipitation 0.00 in - - ()
Sea Level Pressure  
Sea Level Pressure 29.95 in    
Wind  
Wind Speed 9 mph (South)    
Max Wind Speed 13 mph    
Max Gust Speed 23 mph    
Visibility 8 miles    
Events Rain    
Averages and records for this station are not official NWS values.
T = Trace of Precipitation, MM = Missing Value Source: NWS Daily Summary

Daily Weather History Graph

Daily Weather History Graph

Search for Another Location

Airport:

Trip Planner

Search our weather history database for the weather conditions in past years. The results will help you decide how hot, cold, wet, or windy it might be!

Date:

Astronomy

Nov. 19, 2011 Rise Set
Actual Time 6:53 AM CST 5:10 PM CST
Civil Twilight 6:27 AM CST 5:36 PM CST
Nautical Twilight 5:56 AM CST 6:07 PM CST
Astronomical Twilight 5:26 AM CST 6:37 PM CST
Moon 12:30 AM CST 1:14 PM CST
Length of Visible Light 11h 09m
Length of Day
10h 16m
Last Quarter, 38% of the Moon is Illuminated
Nov 19
Last Quarter
Nov 25
New
Dec 2
First Quarter
Dec 10
Full
Dec 17
Last Quarter

Hourly Weather History & Observations

Time (CST) Temp. Dew Point Humidity Pressure Visibility Wind Dir Wind Speed Gust Speed Precip Events Conditions
12:15 AM 57.2 °F 33.8 °F 41% 29.98 in 10.0 mi South 8.1 mph 17.3 mph N/A   Overcast
12:35 AM 57.2 °F 35.6 °F 44% 29.97 in 10.0 mi South 9.2 mph 20.7 mph N/A   Overcast
12:55 AM 57.2 °F 37.4 °F 48% 29.96 in 10.0 mi South 8.1 mph 21.9 mph N/A   Overcast
1:15 AM 57.2 °F 39.2 °F 51% 29.96 in 10.0 mi South 10.4 mph 19.6 mph N/A   Overcast
1:55 AM 57.2 °F 41.0 °F 55% 29.96 in 10.0 mi South 9.2 mph 21.9 mph N/A   Overcast
2:15 AM 57.2 °F 42.8 °F 59% 29.97 in 10.0 mi South 10.4 mph 19.6 mph N/A   Overcast
2:35 AM 57.2 °F 42.8 °F 59% 29.96 in 10.0 mi South 12.7 mph 18.4 mph N/A   Overcast
2:55 AM 57.2 °F 42.8 °F 59% 29.96 in 10.0 mi South 11.5 mph 17.3 mph N/A   Overcast
3:15 AM 57.2 °F 44.6 °F 63% 29.96 in 10.0 mi South 5.8 mph 16.1 mph N/A   Overcast
3:35 AM 57.2 °F 44.6 °F 63% 29.96 in 10.0 mi South 9.2 mph 19.6 mph N/A   Overcast
3:55 AM 57.2 °F 46.4 °F 67% 29.96 in 10.0 mi SSE 9.2 mph 19.6 mph N/A   Overcast
4:15 AM 59.0 °F 46.4 °F 63% 29.96 in 10.0 mi South 11.5 mph 18.4 mph N/A   Overcast
4:35 AM 59.0 °F 46.4 °F 63% 29.96 in 10.0 mi South 9.2 mph 23.0 mph N/A   Overcast
5:15 AM 59.0 °F 48.2 °F 67% 29.95 in 10.0 mi South 8.1 mph 16.1 mph N/A   Overcast
5:35 AM 59.0 °F 50.0 °F 72% 29.96 in 10.0 mi South 6.9 mph - N/A   Overcast
5:55 AM 59.0 °F 50.0 °F 72% 29.96 in 10.0 mi South 9.2 mph 18.4 mph N/A   Overcast
6:15 AM 59.0 °F 50.0 °F 72% 29.96 in 10.0 mi South 8.1 mph 18.4 mph N/A   Overcast
6:35 AM 59.0 °F 50.0 °F 72% 29.96 in 10.0 mi South 10.4 mph 23.0 mph N/A   Overcast
6:55 AM 57.2 °F 51.8 °F 82% 29.96 in 10.0 mi South 8.1 mph 23.0 mph N/A   Overcast
7:15 AM 57.2 °F 51.8 °F 82% 29.97 in 5.0 mi South 9.2 mph 20.7 mph N/A Rain Light Rain
7:35 AM 57.2 °F 53.6 °F 88% 29.97 in 4.0 mi South 9.2 mph 23.0 mph N/A   Overcast
7:55 AM 57.2 °F 53.6 °F 88% 29.97 in 5.0 mi South 8.1 mph - N/A   Overcast
8:15 AM 59.0 °F 53.6 °F 82% 29.98 in 5.0 mi South 6.9 mph 11.5 mph N/A   Overcast
8:35 AM 59.0 °F 53.6 °F 82% 29.98 in 5.0 mi South 6.9 mph 16.1 mph N/A   Overcast
8:55 AM 59.0 °F 53.6 °F 82% 29.98 in 5.0 mi South 8.1 mph 17.3 mph N/A   Overcast
9:15 AM 59.0 °F 55.4 °F 88% 29.98 in 5.0 mi South 9.2 mph - N/A   Overcast
9:35 AM 59.0 °F 55.4 °F 88% 29.98 in 5.0 mi South 10.4 mph 21.9 mph N/A   Overcast
9:55 AM 59.0 °F 55.4 °F 88% 30.00 in 5.0 mi South 10.4 mph - N/A   Overcast
10:15 AM 59.0 °F 55.4 °F 88% 29.98 in 7.0 mi South 8.1 mph 16.1 mph N/A   Overcast
10:35 AM 60.8 °F 55.4 °F 82% 29.98 in 7.0 mi South 6.9 mph 19.6 mph N/A   Overcast
10:55 AM 60.8 °F 55.4 °F 82% 29.98 in 7.0 mi South 11.5 mph 17.3 mph N/A   Overcast
11:15 AM 60.8 °F 57.2 °F 88% 29.96 in 7.0 mi SSE 5.8 mph - N/A   Overcast
11:35 AM 60.8 °F 57.2 °F 88% 29.96 in 5.0 mi South 6.9 mph 16.1 mph N/A   Overcast
11:55 AM 62.6 °F 57.2 °F 82% 29.96 in 7.0 mi South 9.2 mph - N/A   Overcast
12:15 PM 60.8 °F 57.2 °F 88% 29.95 in 5.0 mi South 8.1 mph 17.3 mph N/A   Overcast
12:35 PM 62.6 °F 57.2 °F 82% 29.94 in 7.0 mi South 5.8 mph - N/A   Overcast
12:55 PM 62.6 °F 59.0 °F 88% 29.93 in 5.0 mi SSE 5.8 mph - N/A Rain Light Rain
1:15 PM 62.6 °F 59.0 °F 88% 29.92 in 7.0 mi South 10.4 mph 16.1 mph N/A   Overcast
1:35 PM 62.6 °F 59.0 °F 88% 29.93 in 7.0 mi SSE 5.8 mph - N/A   Overcast
1:55 PM 62.6 °F 59.0 °F 88% 29.92 in 7.0 mi SSE 5.8 mph - N/A   Overcast
2:15 PM 64.4 °F 59.0 °F 83% 29.91 in 7.0 mi SSE 6.9 mph - N/A   Overcast
2:35 PM 64.4 °F 59.0 °F 83% 29.91 in 10.0 mi SSE 6.9 mph - N/A   Overcast
3:15 PM 66.2 °F 59.0 °F 78% 29.91 in 10.0 mi South 10.4 mph 16.1 mph N/A   Overcast
3:35 PM 68.0 °F 59.0 °F 73% 29.90 in 10.0 mi South 10.4 mph 18.4 mph N/A   Overcast
3:55 PM 68.0 °F 60.8 °F 78% 29.91 in 10.0 mi South 6.9 mph - N/A   Overcast
4:15 PM 68.0 °F 60.8 °F 78% 29.91 in 10.0 mi South 6.9 mph 17.3 mph N/A   Overcast
4:35 PM 68.0 °F 60.8 °F 78% 29.91 in 10.0 mi SSE 4.6 mph - N/A   Overcast
4:55 PM 68.0 °F 60.8 °F 78% 29.92 in 10.0 mi SE 4.6 mph - N/A   Overcast
5:15 PM 69.8 °F 60.8 °F 73% 29.93 in 10.0 mi SSE 9.2 mph - N/A   Overcast
5:55 PM 69.8 °F 62.6 °F 78% 29.94 in 10.0 mi SSE 6.9 mph - N/A   Overcast
6:15 PM 69.8 °F 62.6 °F 78% 29.94 in 10.0 mi SSE 9.2 mph - N/A   Overcast
6:35 PM 69.8 °F 62.6 °F 78% 29.95 in 10.0 mi SE 5.8 mph - N/A   Overcast
6:55 PM 69.8 °F 62.6 °F 78% 29.96 in 10.0 mi SSE 9.2 mph - N/A   Overcast
7:15 PM 69.8 °F 62.6 °F 78% 29.97 in 10.0 mi SSE 6.9 mph - N/A   Light Drizzle
7:35 PM 69.8 °F 62.6 °F 78% 29.96 in 10.0 mi SSE 6.9 mph - N/A   Overcast
7:55 PM 69.8 °F 62.6 °F 78% 29.97 in 10.0 mi SE 5.8 mph - N/A   Overcast
8:15 PM 69.8 °F 64.4 °F 83% 29.97 in 10.0 mi SSE 8.1 mph - N/A   Overcast
8:35 PM 69.8 °F 64.4 °F 83% 29.96 in 10.0 mi SSE 6.9 mph - N/A   Overcast
8:55 PM 71.6 °F 64.4 °F 78% 29.97 in 10.0 mi SSE 6.9 mph - N/A   Overcast
9:15 PM 69.8 °F 64.4 °F 83% 29.98 in 10.0 mi SSE 9.2 mph - N/A Rain Light Rain
9:35 PM 69.8 °F 64.4 °F 83% 29.97 in 10.0 mi SSE 11.5 mph 20.7 mph N/A   Overcast
9:55 PM 71.6 °F 64.4 °F 78% 29.97 in 10.0 mi South 10.4 mph 17.3 mph N/A   Overcast
10:15 PM 71.6 °F 64.4 °F 78% 29.98 in 10.0 mi SE 8.1 mph 17.3 mph N/A   Overcast
10:35 PM 71.6 °F 64.4 °F 78% 29.98 in 10.0 mi SSE 5.8 mph 18.4 mph N/A   Overcast
10:55 PM 71.6 °F 64.4 °F 78% 29.98 in 10.0 mi South 9.2 mph 19.6 mph N/A   Overcast
11:15 PM 71.6 °F 64.4 °F 78% 29.99 in 10.0 mi South 12.7 mph 20.7 mph N/A   Overcast
11:35 PM 69.8 °F 66.2 °F 88% 29.98 in 10.0 mi SSE 9.2 mph 19.6 mph N/A   Overcast
11:55 PM 71.6 °F 66.2 °F 83% 29.98 in 10.0 mi South 3.5 mph - N/A   Overcast